GFSSW_700_rhum_069.txt.gz
RH
26 25 30 29 29 30 33 36 36 39 44 52 58 58 51 42 31 24 25 24 25 12 6 8 10 18 17 22 33 30 25 20 17 16 16 20 25 25 27 31 29 44 34 32 29
14 18 20 23 20 23 23 23 23 24 26 26 30 47 59 53 43 31 22 24 25 28 8 7 11 18 21 28 29 30 22 19 17 17 17 19 22 24 27 26 26 34 51 38 30
5 6 5 7 15 13 17 20 16 14 16 17 23 29 39 58 51 29 29 26 25 26 24 9 24 39 34 28 25 27 23 18 18 19 19 20 22 24 28 28 28 38 43 50 33
2 2 2 2 2 2 4 6 6 7 10 9 10 21 26 31 38 28 30 29 24 23 28 18 45 40 34 27 23 23 23 22 20 19 22 24 24 25 27 29 34 46 26 30 38
2 2 2 2 2 2 2 1 2 2 3 3 6 6 15 19 20 42 30 20 28 26 24 21 45 40 32 24 21 24 22 22 20 19 21 24 24 27 27 27 33 40 30 34 38
2 2 2 2 2 2 2 2 2 2 2 1 2 2 4 6 15 30 43 18 19 39 24 42 42 37 31 27 24 22 23 25 20 20 22 22 24 27 26 29 36 42 34 36 40
2 2 2 2 2 2 2 2 2 2 2 2 2 2 3 4 15 28 44 23 12 35 67 56 46 40 36 32 29 26 24 23 24 21 20 20 22 26 25 26 37 50 36 37 39
2 2 2 2 1 1 1 1 1 1 1 1 1 2 2 3 17 38 43 23 10 21 47 59 63 52 42 32 28 29 25 24 22 22 23 24 24 22 24 32 41 55 56 36 37
2 2 2 2 2 2 1 1 1 1 1 1 1 1 2 6 20 38 54 48 27 30 53 54 57 58 54 41 33 31 26 24 24 22 22 25 25 23 39 37 40 49 60 36 38
3 2 2 2 2 2 2 1 1 1 2 2 2 4 22 29 37 37 55 60 56 22 10 31 55 53 49 43 32 26 24 26 24 22 24 21 28 26 29 38 41 42 56 69 34
2 2 2 2 2 2 2 2 21 34 24 2 10 4 2 28 25 35 51 60 67 82 44 32 44 47 42 41 35 26 22 23 24 22 24 25 23 23 23 28 37 44 47 65 38
3 3 3 3 3 2 2 2 2 3 2 1 1 2 4 4 17 41 48 55 79 92 70 28 33 38 40 41 37 31 26 25 24 22 24 24 19 19 21 24 29 38 45 53 45
5 5 4 4 3 3 2 2 2 2 3 6 14 13 19 19 19 11 67 92 91 99 95 56 29 42 44 43 38 35 32 28 26 24 29 26 23 22 22 24 25 32 34 43 62
6 5 5 4 4 4 6 3 3 3 19 47 43 33 37 25 36 24 62 77 66 99 98 84 44 46 50 47 40 34 32 30 27 27 26 23 19 22 21 23 26 30 36 38 55
8 6 5 5 5 4 9 4 5 8 34 38 50 25 32 39 44 66 56 93 80 79 98 93 64 41 51 47 44 39 34 31 30 30 29 27 22 21 22 20 21 22 26 44 48
9 8 6 6 5 5 5 6 10 86 31 35 49 57 72 58 58 69 59 78 90 95 94 88 92 82 45 38 47 36 37 34 33 33 32 30 27 22 21 20 23 22 25 37 52
10 9 8 7 14 9 11 17 85 47 19 24 45 53 46 39 53 59 74 74 86 95 96 94 92 77 63 36 45 34 36 34 38 36 36 27 26 24 21 23 24 26 27 37 47
11 10 9 9 8 10 53 92 68 19 26 24 40 39 23 28 54 64 74 73 90 84 97 98 85 71 57 40 39 36 35 34 44 42 30 28 28 27 27 26 29 31 33 33 45
11 11 10 9 10 67 91 94 39 30 24 38 49 24 24 41 56 56 66 75 87 86 97 78 70 72 74 53 44 40 36 32 32 44 38 30 30 31 32 28 26 27 32 37 43
15 13 13 16 35 75 98 80 54 47 67 62 39 27 36 41 54 68 71 92 94 93 91 82 68 68 87 70 54 50 41 36 32 49 52 34 31 28 28 27 26 31 36 41 45
24 80 77 26 58 84 95 89 75 59 54 66 49 41 48 48 53 83 96 99 86 80 84 63 58 71 62 79 58 48 43 39 36 36 39 42 36 32 32 34 30 35 37 43 50
43 98 77 63 73 84 97 98 80 74 65 61 57 61 59 56 58 65 94 99 97 88 87 56 58 67 60 52 62 56 45 44 40 40 35 37 47 36 35 36 37 36 36 38 40
84 96 76 94 95 100 98 88 81 75 68 63 55 52 58 57 68 56 95 72 95 91 98 97 68 54 61 64 50 59 55 46 46 50 73 54 38 40 37 38 36 35 34 37 41
100 97 99 77 84 94 93 94 82 86 76 70 71 54 54 72 82 65 73 74 74 94 100 99 94 75 54 53 45 46 43 43 46 47 45 49 43 38 36 36 38 37 36 39 42
93 91 96 96 99 100 100 99 80 66 88 69 67 63 72 79 80 77 64 68 70 69 96 100 87 93 61 82 59 55 48 45 42 44 41 41 37 34 36 38 39 42 43 43 39
84 91 80 100 98 98 90 91 91 76 79 80 70 58 68 57 61 59 64 77 86 83 89 94 95 98 83 62 64 56 51 49 49 50 49 48 46 46 45 46 49 50 48 45 43
84 85 92 96 99 98 99 84 81 82 78 93 90 69 64 79 93 94 93 95 92 90 94 81 95 96 98 91 74 64 63 66 68 59 58 52 57 65 56 60 65 63 58 52 40

GFSSW_700_rhum_072.txt.gz
RH
24 22 17 18 24 21 21 22 20 20 19 20 22 22 24 33 42 48 44 34 28 24 24 13 6 7 16 32 30 32 29 26 22 18 15 15 19 22 23 22 27 26 32 35 30
6 7 6 8 9 9 16 13 17 18 14 11 10 10 15 20 21 32 47 42 34 28 24 25 9 8 20 35 33 31 30 25 21 16 16 16 16 21 23 24 25 24 33 45 55
2 2 2 2 2 2 2 3 5 8 5 3 3 5 5 14 16 20 35 42 42 31 26 25 17 46 46 36 32 28 28 24 20 17 18 18 18 19 21 22 26 27 33 45 61
2 2 2 2 2 2 2 2 2 2 2 2 2 2 2 3 19 24 19 27 33 36 28 24 26 42 44 37 29 25 24 24 22 20 19 18 19 20 20 23 26 27 32 36 28
2 2 2 2 2 2 2 2 2 2 2 2 2 2 2 2 2 5 9 16 35 26 26 24 26 42 41 36 31 25 21 20 20 20 20 19 20 22 22 24 25 25 37 38 31
2 3 2 2 2 2 2 2 2 2 2 2 2 2 2 1 2 4 5 6 32 36 25 31 37 46 41 36 32 26 21 19 20 20 21 19 20 20 22 24 26 27 40 42 31
3 3 2 2 2 2 2 2 1 1 1 1 1 1 1 1 2 2 2 14 27 38 27 66 53 45 38 37 31 27 24 23 21 21 22 20 20 20 20 22 24 24 35 52 38
3 3 2 2 2 2 2 1 1 1 1 1 1 1 1 1 2 4 8 12 33 38 15 34 57 51 46 41 35 31 28 26 23 21 21 22 21 21 22 22 22 28 39 61 44
3 2 2 2 2 2 2 1 1 1 1 1 1 1 2 6 14 22 7 9 42 38 34 28 55 50 56 50 43 33 29 25 23 21 21 21 22 23 23 28 28 33 42 55 61
3 3 2 2 2 2 2 2 2 1 3 4 8 13 26 36 49 45 40 23 53 63 50 17 41 56 60 54 48 38 28 26 24 22 22 22 21 22 27 32 34 35 36 50 61
4 4 3 2 2 2 2 2 19 12 11 2 4 2 10 44 34 42 58 64 63 69 72 37 50 56 50 46 47 37 30 26 22 23 23 23 23 22 21 24 28 35 39 44 60
4 4 3 3 3 3 3 4 5 11 4 2 1 1 3 4 3 3 46 64 74 82 79 78 46 42 46 46 42 41 39 34 26 24 24 23 23 23 20 22 23 30 35 41 55
5 5 4 4 4 4 4 8 5 7 6 8 11 8 20 26 20 17 36 69 80 75 87 98 80 58 42 37 44 41 39 36 29 25 25 23 24 26 22 19 19 22 29 37 44
7 6 6 6 5 5 40 56 13 5 22 52 45 43 24 22 44 24 26 59 88 86 88 92 84 66 47 57 37 39 39 37 32 30 29 25 24 23 22 21 20 22 26 30 34
9 8 8 7 7 7 48 22 5 16 65 47 46 23 16 29 37 57 39 56 83 95 88 86 99 94 81 76 44 45 47 56 39 32 30 27 26 25 21 22 21 22 25 31 33
11 10 10 9 8 8 6 7 10 84 55 35 43 50 62 56 52 54 54 59 81 86 95 75 80 97 89 70 61 58 66 80 47 37 36 30 30 27 25 22 20 21 22 25 34
12 12 11 10 14 96 34 25 94 68 19 16 27 41 42 34 24 50 64 66 70 92 80 91 81 95 90 85 74 67 85 80 58 44 43 32 30 28 24 23 23 23 23 26 37
23 16 13 11 11 28 43 80 88 31 31 21 33 26 29 19 18 48 56 65 68 86 82 93 92 81 89 90 89 58 74 52 64 53 38 32 28 27 24 22 24 27 25 30 36
66 32 14 12 11 18 82 100 54 39 26 19 20 34 28 15 34 38 60 57 65 73 92 92 81 88 91 86 96 75 65 52 45 51 52 34 27 32 28 26 26 26 28 30 32
89 93 18 25 14 46 100 99 70 50 40 48 40 32 21 23 43 46 63 89 90 93 82 95 97 82 82 95 90 96 61 67 43 60 81 42 35 29 30 28 25 26 32 36 39
91 98 27 66 53 76 100 99 76 58 56 44 48 44 32 30 34 37 59 98 93 86 88 98 98 81 96 99 87 68 64 69 48 39 55 60 44 63 37 28 27 34 36 41 47
97 96 71 77 79 98 100 100 84 65 56 53 53 54 54 52 47 51 50 76 87 96 97 99 99 85 72 66 98 84 74 65 56 56 40 41 46 37 37 33 34 34 34 38 42
96 79 93 96 91 88 100 96 90 78 64 58 57 52 49 46 45 52 57 93 71 67 95 97 96 71 68 62 92 98 89 86 75 68 58 72 43 41 40 38 35 34 35 37 40
98 89 73 98 86 97 93 94 84 83 64 65 56 54 54 44 44 63 75 87 78 75 77 97 92 96 73 83 99 97 76 81 91 91 76 78 53 56 51 38 36 38 38 42 48
96 76 96 92 88 94 99 96 88 70 64 64 58 57 55 67 50 68 52 85 94 95 83 94 96 98 95 83 81 100 88 82 86 80 62 55 64 68 56 48 39 40 42 42 42
96 71 93 96 97 97 89 91 90 96 78 75 62 54 49 50 52 61 56 76 75 95 99 82 97 86 74 86 95 98 82 79 92 81 58 46 59 54 58 50 49 50 50 45 47
97 77 94 84 88 98 93 91 71 73 87 85 93 89 79 71 66 89 93 85 86 90 97 100 81 96 93 97 95 72 88 86 77 65 71 70 77 66 60 60 62 56 50 46 50

GFSSW_700_rhum_075.txt.gz
RH
6 6 8 12 9 13 13 17 16 15 18 16 13 12 12 12 14 18 20 35 39 37 27 26 24 10 8 9 15 25 46 41 27 26 20 18 20 20 20 21 24 26 26 24 26
2 3 3 3 2 2 2 2 3 8 8 11 8 2 2 3 2 5 13 25 38 40 38 26 25 23 8 9 17 39 43 38 23 23 23 21 18 18 21 21 23 24 28 29 32
2 2 2 2 2 2 2 2 2 2 2 2 2 2 2 2 1 4 9 13 21 37 43 36 25 25 18 14 22 28 36 32 31 26 27 24 19 18 18 22 22 25 28 30 34
2 2 2 2 2 2 2 2 2 3 2 2 2 2 2 2 3 3 3 3 5 19 30 36 28 22 25 27 18 33 28 28 26 26 25 22 21 20 18 20 21 23 26 26 29
3 3 3 3 3 3 3 2 2 2 2 2 2 2 2 2 1 2 2 2 4 12 26 26 28 22 24 24 43 42 33 30 27 24 23 21 21 20 19 20 21 23 25 26 32
3 3 3 3 3 3 2 2 2 2 2 1 1 1 1 1 1 1 1 2 1 4 16 29 31 29 26 38 41 40 36 31 28 24 22 20 20 20 19 18 20 22 24 26 27
3 3 3 3 3 2 2 2 2 2 1 1 1 1 1 1 1 1 1 1 1 6 20 34 41 49 52 47 44 40 39 35 30 26 24 20 20 21 19 20 20 20 24 25 33
3 3 3 3 3 3 2 2 2 2 1 1 1 1 1 1 1 2 2 2 7 7 8 32 44 50 52 47 44 42 37 34 28 27 24 24 22 22 21 20 20 20 22 24 32
3 4 4 4 4 3 2 2 2 1 1 1 1 1 2 5 7 12 8 7 4 3 24 37 37 56 54 54 47 42 42 36 34 30 24 24 23 21 21 22 23 24 23 27 32
4 4 4 4 4 4 3 2 2 1 1 2 3 4 16 26 27 41 19 17 13 10 41 35 35 37 60 56 55 50 45 40 34 22 26 24 22 21 21 22 24 25 26 32 41
4 4 4 4 4 3 3 2 4 5 4 4 5 2 2 10 15 22 19 48 37 38 55 64 54 29 37 54 52 50 54 49 38 32 30 33 25 22 22 21 26 30 32 34 37
4 4 5 5 4 4 4 3 9 18 4 5 3 2 2 4 2 11 16 26 41 58 76 80 70 49 36 52 55 56 52 48 43 40 35 34 32 24 24 23 23 24 30 34 37
4 5 5 6 6 5 5 12 19 5 15 2 3 4 6 9 14 16 20 17 33 73 78 75 78 82 72 52 58 60 55 46 42 40 39 34 32 24 23 23 22 20 24 30 39
5 6 6 7 8 7 8 24 21 11 19 4 10 13 10 27 29 28 30 27 58 69 87 80 76 72 77 66 53 59 47 46 43 42 65 43 37 28 25 24 23 19 19 29 38
8 7 8 9 10 9 34 44 24 12 96 37 48 42 19 20 35 37 39 31 51 64 75 56 58 76 89 81 65 61 47 53 52 63 67 51 43 34 28 26 25 22 19 26 30
10 10 9 12 11 10 9 12 24 80 86 54 38 33 31 43 42 50 46 46 48 72 84 76 58 77 66 89 78 91 58 66 61 80 86 63 53 33 29 26 25 23 21 20 25
13 12 12 13 14 16 16 19 82 93 17 30 32 49 44 45 38 51 49 48 49 69 72 69 61 72 86 99 79 82 92 92 92 96 90 52 46 36 30 25 27 23 22 22 24
20 16 17 18 18 57 100 97 100 50 9 27 32 39 34 30 26 28 53 55 55 64 76 78 80 85 79 90 89 90 99 88 92 87 56 38 38 33 28 26 26 23 22 23 28
42 72 28 33 32 30 99 91 68 41 41 37 25 24 24 19 23 42 47 56 62 67 75 82 84 81 98 98 96 90 99 83 98 73 95 62 35 32 29 26 25 23 25 26 28
63 79 54 55 51 61 100 82 58 49 61 43 44 31 30 23 35 41 53 69 84 84 83 79 88 72 90 96 99 99 94 96 99 93 93 62 53 33 28 26 26 26 26 31 32
84 88 56 71 64 83 86 50 85 23 68 56 46 45 44 41 40 34 56 67 82 79 96 97 96 82 90 85 98 99 99 99 99 95 77 90 69 47 33 27 25 28 30 33 39
87 96 71 98 82 86 55 58 56 68 78 80 57 53 56 54 55 50 50 60 77 77 69 92 98 98 87 74 91 93 98 99 98 87 71 61 72 52 38 34 30 35 36 35 36
98 73 59 92 97 78 77 79 62 42 75 82 68 60 56 47 49 45 51 79 76 68 74 83 97 97 71 67 70 96 82 99 98 99 99 94 72 77 55 45 36 39 38 40 43
100 91 69 90 93 97 94 88 81 64 55 68 72 66 56 56 52 45 48 82 90 81 84 80 82 82 95 96 99 98 99 92 98 99 91 87 70 78 57 46 47 42 43 46 49
97 92 96 91 78 94 97 94 96 94 86 81 66 65 68 65 61 54 53 62 93 84 94 89 82 83 85 96 97 98 94 98 100 91 99 81 74 97 83 66 64 50 46 51 53
85 84 96 92 97 98 78 82 91 95 97 91 72 58 63 56 51 64 65 65 82 79 94 96 84 76 71 77 88 92 97 97 99 94 98 93 97 95 98 83 82 48 44 42 44
84 67 97 82 93 96 95 85 85 88 75 92 91 83 70 76 69 62 67 66 69 82 92 98 94 86 90 83 94 96 98 99 99 99 92 99 98 90 96 98 91 58 48 44 43

GFSSW_700_rhum_078.txt.gz
RH
4 4 4 4 5 5 5 5 9 7 12 14 17 14 11 10 9 8 10 13 24 38 41 36 30 25 18 7 8 13 19 24 20 13 8 8 23 22 25 24 22 21 22 24 24
3 2 2 2 2 2 2 2 2 2 2 4 4 6 4 2 2 2 3 6 19 40 44 41 32 24 25 17 10 14 16 17 9 10 10 8 24 26 26 23 22 23 23 24 25
3 2 2 2 2 2 2 2 2 2 2 2 2 2 2 2 2 2 7 12 18 29 38 43 42 27 25 24 15 10 9 9 11 11 14 10 20 25 28 23 20 24 24 28 28
4 4 3 3 3 3 3 3 3 3 2 2 3 3 2 2 2 6 5 3 2 4 15 28 39 34 29 26 26 18 11 12 9 11 16 16 23 26 24 22 21 21 23 25 25
4 4 4 4 3 3 3 3 3 3 2 2 2 2 2 1 1 2 1 1 2 3 9 16 26 31 31 26 26 26 25 15 18 20 20 24 24 24 21 21 21 20 22 23 25
4 4 4 3 4 4 3 3 3 2 2 2 2 2 1 1 1 1 1 1 2 3 5 6 18 29 33 28 25 28 30 30 28 30 27 29 25 26 21 20 21 20 19 19 22
4 3 3 3 4 4 3 3 3 2 2 2 2 2 1 1 1 1 1 1 1 2 2 5 14 31 37 30 28 33 38 38 38 30 35 34 34 28 23 20 21 21 20 20 21
4 4 4 3 4 4 4 4 3 2 2 2 2 1 1 1 1 1 1 1 1 1 2 11 29 52 45 41 40 40 46 45 33 38 36 36 31 22 22 22 21 20 19 21 20
6 6 4 4 4 4 4 5 4 3 2 2 2 1 1 2 3 3 3 4 8 7 5 6 41 58 57 55 52 50 49 43 41 37 37 34 30 25 23 23 22 21 20 21 22
8 8 7 5 4 4 5 5 5 4 3 2 2 2 3 6 5 8 12 11 8 8 9 18 35 48 55 60 60 56 50 48 45 36 36 34 35 27 23 23 22 21 22 25 24
4 6 6 5 4 4 5 5 4 7 5 4 3 2 4 5 4 6 10 17 16 14 19 34 39 30 31 36 49 60 54 52 48 43 45 45 46 35 29 31 25 22 22 26 25
3 3 5 5 4 5 6 5 6 32 12 11 6 4 2 7 7 5 13 19 31 26 40 60 67 45 49 40 32 44 58 56 53 44 48 47 42 36 32 30 28 22 23 27 29
3 3 4 6 5 7 7 8 7 8 11 6 5 3 2 2 3 7 10 12 28 31 48 73 64 77 72 75 59 49 61 60 57 47 46 46 44 36 33 30 24 23 23 23 28
8 5 4 6 7 10 10 11 12 16 21 7 6 8 6 4 7 18 26 26 28 29 59 74 61 70 74 77 76 68 55 62 62 60 66 53 64 48 35 34 34 24 24 23 23
12 10 8 5 9 12 16 26 22 52 64 25 14 30 20 15 33 30 38 38 25 26 50 50 50 54 59 49 62 75 64 62 62 64 77 60 62 45 39 34 30 26 25 24 21
16 14 11 9 12 16 13 21 56 49 80 25 46 44 30 22 46 43 45 41 39 52 62 55 54 49 42 58 74 91 81 62 71 74 78 61 65 51 44 32 31 28 26 26 21
18 18 16 12 21 23 18 16 37 98 18 30 53 36 32 24 53 54 45 42 42 54 63 60 46 57 73 78 82 98 89 88 90 89 80 47 60 50 34 31 29 27 25 24 23
19 22 22 20 32 39 28 88 97 24 15 32 36 55 41 50 58 50 60 52 53 54 57 63 63 64 71 76 94 97 92 98 88 95 71 51 57 44 35 30 26 27 25 23 23
19 27 24 45 72 61 88 98 66 38 58 61 37 38 56 40 30 39 41 55 57 58 62 74 80 79 72 75 93 99 99 90 98 98 99 71 49 36 30 30 28 27 27 23 24
39 51 33 59 92 64 67 87 50 39 40 68 85 57 50 42 30 41 54 65 65 68 66 77 81 70 73 88 98 92 98 99 98 96 96 65 56 44 30 31 28 29 25 23 24
72 74 40 84 94 85 78 39 27 24 41 81 80 84 60 57 52 49 68 83 83 86 87 82 83 81 90 83 72 87 99 98 98 91 98 98 77 72 52 46 31 28 26 26 29
80 83 74 76 97 87 77 54 50 42 37 92 64 78 64 57 53 50 57 65 83 78 68 77 99 94 62 61 76 78 99 99 94 98 85 86 75 93 67 47 37 32 35 33 33
80 74 69 97 97 87 65 72 87 61 34 52 76 86 63 61 55 48 63 88 84 74 72 71 93 93 61 71 93 99 88 98 99 98 98 96 81 100 80 52 47 40 37 36 41
89 95 76 74 70 80 98 87 82 65 69 63 61 96 73 60 59 63 54 70 92 81 75 78 77 71 82 80 97 89 97 97 99 99 90 90 81 91 91 66 59 53 41 45 48
91 82 76 87 89 70 85 83 95 79 75 96 89 88 64 68 65 65 63 66 85 82 73 71 84 73 61 61 74 69 70 90 97 98 99 80 86 100 97 99 85 75 52 50 55
89 90 82 82 97 97 96 93 96 92 93 84 96 76 76 71 68 68 55 66 70 74 66 76 84 84 65 69 86 99 99 82 76 96 99 98 98 98 99 99 98 79 56 55 63
90 83 95 79 83 94 95 96 96 97 94 93 91 95 80 72 78 75 63 61 70 70 72 79 96 96 85 57 56 88 83 92 80 84 97 99 89 99 99 99 94 72 63 66 60

GFSSW_700_rhum_084.txt.gz
RH
6 6 6 5 4 4 3 4 3 3 4 5 5 7 7 11 14 16 14 10 10 14 20 32 40 40 31 26 17 12 24 22 20 11 6 5 6 6 7 12 26 28 30 29 34
6 5 5 5 4 3 3 3 2 2 2 2 2 3 2 2 5 6 7 6 4 5 7 19 41 36 28 27 23 18 17 18 13 10 10 8 7 7 8 9 24 25 24 29 31
6 6 6 6 6 5 4 4 3 3 3 3 3 2 2 2 2 2 2 2 2 2 3 12 36 43 38 33 29 27 25 22 19 17 12 12 10 8 8 7 11 24 23 23 25
6 6 6 6 6 6 6 5 4 4 4 3 3 3 3 3 3 4 6 6 3 11 30 33 42 42 41 37 34 30 30 29 26 24 19 19 18 13 9 8 8 21 23 22 26
6 5 5 6 6 6 6 5 5 4 4 4 4 3 3 3 2 2 2 2 11 16 11 20 41 47 45 43 40 37 31 28 26 26 26 24 23 19 14 10 6 14 22 23 21
6 6 6 6 6 5 6 6 5 5 5 4 4 4 3 3 3 3 2 2 1 2 2 2 2 16 38 40 39 36 38 35 30 27 28 30 27 27 21 16 10 8 20 23 21
8 7 8 8 9 9 8 6 6 5 6 5 4 5 5 4 3 2 2 2 1 1 2 2 5 12 20 20 24 28 31 36 31 29 28 29 26 23 23 21 16 14 18 23 21
1 1 1 1 1 1 2 6 9 8 6 6 5 5 6 5 5 3 2 1 1 1 2 8 12 15 20 19 24 29 35 35 21 22 26 24 10 15 21 25 21 20 22 24 22
1 1 1 1 1 1 1 1 1 4 9 8 6 5 6 6 6 6 2 2 2 2 4 8 9 14 14 25 24 36 37 37 37 29 29 31 21 34 28 33 33 29 27 21 22
2 1 1 1 2 1 1 1 1 1 2 5 8 8 9 7 6 10 8 9 9 9 12 9 8 12 15 24 32 30 42 44 47 46 45 48 29 32 38 39 42 35 28 25 21
3 3 2 2 2 2 1 2 2 2 2 4 6 8 8 21 11 16 25 27 36 34 22 22 36 32 10 15 24 26 32 44 40 44 43 41 37 24 42 44 43 36 33 28 21
4 3 3 2 2 2 3 5 4 8 2 2 2 7 8 11 10 19 38 40 45 44 38 40 31 23 28 36 44 47 47 43 37 34 55 53 37 20 30 30 39 35 35 30 25
4 3 3 3 4 5 6 7 7 7 10 2 1 1 3 5 8 9 24 35 51 52 44 36 34 34 38 42 49 50 56 55 58 61 59 53 33 22 21 25 27 33 34 29 27
4 4 3 5 9 9 8 8 9 12 34 4 18 23 29 23 9 9 8 24 49 48 43 41 35 37 60 73 67 71 60 67 70 66 74 69 77 36 28 30 31 28 30 28 33
4 4 5 9 12 12 11 9 10 26 87 6 42 73 66 54 48 22 10 10 29 50 43 39 36 43 47 48 58 72 75 58 59 89 88 78 74 40 45 36 30 27 28 26 34
4 4 8 14 14 12 10 12 15 82 74 5 17 68 65 73 62 70 20 22 14 38 33 39 62 66 53 49 52 57 70 66 78 86 87 67 67 61 45 48 42 34 24 29 34
5 6 12 13 11 11 9 16 33 92 19 18 27 44 33 50 63 70 43 72 41 56 59 55 55 51 56 52 60 69 83 82 92 94 87 53 70 61 40 38 41 37 30 34 34
5 9 12 12 11 11 12 30 87 39 43 29 11 11 39 55 70 81 56 64 62 47 48 50 53 53 55 64 67 77 84 73 93 92 84 68 63 47 64 50 40 37 31 35 34
7 11 14 19 19 17 34 78 58 93 100 72 22 46 75 83 95 74 69 58 52 44 52 58 61 72 78 74 72 96 95 76 96 82 95 73 59 63 77 70 58 40 30 33 32
11 15 30 42 36 31 53 93 73 63 90 84 82 83 98 91 91 84 76 83 60 51 51 61 69 75 78 76 75 84 96 99 96 99 96 71 72 87 82 71 58 47 32 30 30
16 36 52 51 48 59 88 83 64 50 66 90 86 88 77 79 94 97 90 89 66 58 54 61 71 85 78 69 68 88 94 96 94 98 98 98 76 91 86 91 70 51 39 27 25
39 61 73 68 64 89 75 83 87 67 72 75 78 62 53 76 49 97 97 100 85 66 70 74 83 75 58 58 70 91 94 96 99 96 98 100 72 76 72 70 78 66 39 30 26
69 66 70 66 67 78 93 90 89 69 73 86 84 95 97 94 80 94 95 99 98 92 88 93 78 59 47 80 87 98 99 99 98 96 98 99 74 68 63 70 57 88 70 39 29
81 79 72 71 78 91 98 76 82 55 54 52 73 70 54 58 48 71 93 98 95 93 88 72 66 60 59 59 63 55 54 67 93 99 83 80 66 51 50 67 71 68 100 86 43
80 80 80 80 79 91 92 88 91 98 86 77 86 63 79 97 63 79 95 98 96 94 76 63 64 57 56 50 65 65 64 45 46 55 97 46 63 46 66 85 78 88 100 100 79
76 78 89 76 80 83 85 80 95 95 97 86 95 64 96 92 75 95 96 94 87 77 72 72 67 62 52 43 57 57 45 55 62 58 70 64 70 70 66 100 100 84 100 100 98
84 82 85 68 75 86 71 88 94 96 80 95 95 96 79 88 93 96 94 88 71 67 63 60 60 72 76 45 40 40 52 76 41 79 100 99 68 100 87 94 96 98 100 100 100